Probability
0 0 0 0 0 0 0 0 0 0 0 0 0 0 0 0 0 0 0 0 0 0 0 0 0 1 2 2 1 0 0 0 0 0 0 0 0 0 0 0 0 0 0
0 0 0 0 0 0 0 0 0 0 0 0 0 0 0 0 0 0 0 0 0 0 0 0 0 0 1 2 2 1 0 0 0 0 0 0 0 0 0 0 0 0 0
0 0 0 0 0 0 0 0 0 0 0 0 0 0 0 0 0 0 0 0 0 0 0 0 0 0 1 2 2 1 0 0 0 1 1 1 1 0 0 0 0 0 0
0 0 0 0 0 0 0 0 0 0 0 0 0 0 0 0 0 0 0 0 0 0 0 0 0 0 0 1 2 2 1 1 1 1 2 3 2 1 0 0 0 0 0
0 0 0 0 0 0 0 0 0 0 0 0 0 0 0 0 0 0 0 0 0 0 0 0 0 0 0 1 2 3 3 2 2 2 2 3 3 2 1 0 0 0 0
0 0 0 0 0 0 0 0 0 0 0 0 0 0 0 0 0 0 0 0 0 0 0 0 0 0 0 0 1 2 3 3 3 2 2 3 3 2 1 0 0 0 0
0 0 0 0 0 0 0 0 0 0 0 0 0 0 0 0 0 0 0 0 0 0 0 0 0 0 0 0 0 1 3 3 3 3 3 3 3 2 1 0 0 0 0
0 0 0 0 0 0 0 0 0 0 0 0 0 0 0 0 0 0 0 0 0 0 0 0 0 0 0 0 0 1 2 3 3 3 3 3 3 3 1 0 0 0 0
0 0 0 0 0 0 0 0 0 0 0 0 0 0 0 0 0 0 0 0 0 0 0 0 0 0 0 0 0 0 1 2 3 3 3 3 3 3 2 1 0 0 0
0 0 0 0 0 0 0 0 0 0 0 0 0 0 0 0 0 0 0 0 0 0 0 0 0 0 0 0 0 0 0 1 2 3 3 3 3 3 3 1 0 0 0
0 0 0 0 0 0 0 0 0 0 0 0 0 0 0 0 0 0 0 0 0 0 0 0 0 0 0 0 0 0 0 0 1 3 3 3 3 3 4 3 2 1 1
0 0 0 0 0 0 0 0 0 0 0 0 0 0 0 0 0 0 0 0 0 0 0 0 0 0 0 0 0 0 0 0 1 2 3 3 3 4 5 5 5 4 3
0 0 0 0 0 0 0 0 0 0 0 0 0 0 0 0 0 0 0 0 0 0 0 0 0 0 0 0 0 0 0 0 0 1 3 3 3 4 5 6 6 6 5
0 0 0 0 0 0 0 0 0 0 0 0 0 0 0 0 0 0 0 0 0 0 0 0 0 0 0 0 0 0 0 0 0 1 2 3 3 3 3 5 5 5 5
0 0 0 0 0 0 0 0 0 0 0 0 0 0 0 0 0 0 0 0 0 0 0 0 0 0 0 0 0 0 0 0 0 0 1 2 1 1 1 2 3 3 2
0 0 0 0 0 0 0 0 0 0 0 0 0 0 0 0 0 0 0 0 0 0 0 0 0 0 0 0 0 0 0 0 0 0 0 0 0 0 0 0 1 1 0
0 0 0 0 0 0 0 0 0 0 0 0 0 0 0 0 0 0 0 0 0 0 0 0 0 0 0 1 0 0 0 0 0 0 0 0 0 0 0 0 0 0 0
0 0 0 0 0 0 0 0 0 0 0 0 0 0 0 0 0 0 0 0 0 0 0 0 0 0 0 0 0 0 0 0 0 0 0 0 0 0 0 0 0 0 0
0 0 0 0 0 0 0 0 0 0 0 0 0 0 0 0 0 0 0 0 0 0 0 0 0 0 0 0 0 0 0 0 0 0 0 0 0 0 0 0 0 0 0
0 0 0 0 0 0 0 0 0 0 0 0 0 0 0 0 0 0 0 0 0 0 0 0 0 0 0 0 0 0 1 0 0 0 0 0 0 0 0 0 0 0 0
0 0 0 0 0 0 0 0 0 0 0 0 0 0 0 0 0 0 0 0 0 0 0 0 0 0 0 0 0 0 0 0 0 0 0 0 0 0 0 0 0 0 0
0 0 0 0 0 0 0 0 0 0 0 0 0 0 0 0 0 0 0 0 0 0 0 0 0 0 0 0 0 0 0 0 0 0 0 0 0 0 0 0 0 0 0
0 0 0 0 0 0 0 0 0 0 0 0 0 0 0 0 0 0 0 0 0 0 0 0 0 0 0 0 0 0 0 0 0 0 0 0 0 0 0 0 0 0 0
0 0 0 0 0 0 0 0 0 0 0 0 0 0 0 0 0 0 0 0 0 0 0 0 0 0 0 0 0 0 0 0 0 0 0 0 0 0 0 0 0 0 0
0 0 0 0 0 0 0 0 0 0 0 0 0 0 0 0 0 0 0 0 0 0 0 0 0 0 0 0 0 0 0 0 0 0 0 0 0 0 0 0 0 0 0
0 0 0 0 0 0 0 0 0 0 0 0 0 0 0 0 0 0 0 0 0 0 0 0 0 0 0 0 0 0 0 0 0 0 0 0 0 0 0 0 0 0 0
Wind_Speed
3 2 2 2 2 2 2 2 2 3 3 3 3 3 3 3 4 3 3 6 7 8 8 9 9 8 8 8 8 8 7 7 7 8 8 8 8 8 8 8 9 9 9
3 2 2 2 2 2 1 2 2 2 2 2 3 3 3 3 3 4 3 4 6 6 7 7 8 8 8 7 7 7 6 6 6 6 6 7 7 7 7 7 7 7 7
3 3 2 2 1 1 2 2 2 2 2 2 3 3 3 3 3 3 3 2 3 4 5 6 6 7 6 6 6 6 6 5 5 5 5 5 6 6 6 6 5 5 5
3 3 2 2 2 1 1 2 2 2 2 2 2 2 2 2 3 3 3 3 2 2 3 5 5 6 6 5 5 6 5 5 4 4 4 4 4 4 5 5 5 4 4
3 3 2 2 2 1 1 2 2 2 2 2 2 2 2 2 2 2 3 3 2 2 2 3 4 4 5 4 4 4 5 4 4 3 3 3 4 4 4 4 3 3 3
3 3 2 2 2 2 1 2 2 2 2 2 2 2 1 1 1 2 2 2 2 3 2 2 2 2 3 3 3 3 4 4 3 2 2 3 3 3 3 3 3 3 3
3 3 2 2 2 2 2 2 2 3 2 2 2 1 1 1 1 1 1 2 2 1 2 2 2 1 1 2 2 2 3 3 3 2 2 2 2 2 2 2 2 3 2
3 2 3 2 2 2 2 2 2 2 1 1 2 2 0 1 1 0 1 1 2 1 1 1 2 2 1 1 1 1 1 2 2 2 2 2 1 2 2 1 2 2 2
3 3 3 2 2 2 2 2 3 2 2 1 1 2 2 2 1 1 1 1 1 1 1 1 2 2 2 1 1 1 0 0 2 2 1 1 1 1 1 1 1 2 2
3 3 4 3 3 2 2 2 2 1 3 2 1 1 1 2 2 1 1 1 1 2 2 1 2 2 2 2 1 0 0 1 2 2 2 2 1 1 1 1 0 0 1
3 3 4 4 3 3 3 3 2 1 2 2 2 1 0 0 1 2 2 2 1 2 2 2 2 2 2 2 2 1 1 2 3 3 3 3 2 3 2 2 2 2 2
3 3 3 4 3 3 3 3 3 2 2 2 1 1 2 1 2 1 2 2 2 2 3 3 3 3 2 2 3 3 2 3 4 4 4 4 3 3 3 2 2 2 3
3 4 4 4 4 3 3 3 3 3 3 3 3 2 2 2 1 1 1 1 1 2 2 2 3 3 3 3 2 4 4 4 4 5 5 5 4 4 4 3 4 4 4
4 4 4 4 4 4 4 3 3 3 3 3 3 2 2 2 1 1 2 1 1 2 2 3 2 3 2 2 3 4 3 4 5 6 6 6 4 4 4 4 5 5 4
4 5 5 5 4 4 4 4 3 4 3 3 3 3 2 2 2 2 1 2 3 3 4 3 2 3 2 2 4 4 3 5 6 7 6 5 5 5 5 6 5 5 5
4 5 6 5 5 4 4 4 3 3 4 3 3 3 3 2 2 2 2 2 2 3 4 3 2 2 2 2 5 4 4 6 7 8 7 6 6 7 7 7 6 6 6
5 5 6 5 5 5 5 4 4 4 5 4 4 4 4 3 2 2 2 2 3 3 4 4 2 2 3 3 3 3 4 4 5 8 9 8 8 8 8 7 7 7 7
4 5 5 5 5 5 5 6 6 5 6 6 5 5 5 4 4 3 3 3 3 3 3 4 3 2 3 4 4 4 4 4 4 8 10 10 9 9 9 8 8 8 7
4 4 5 6 6 6 6 6 6 6 6 6 6 6 6 5 5 3 4 4 3 3 3 3 4 2 2 3 3 4 4 4 5 6 9 10 10 10 10 9 9 9 8
4 4 4 5 5 6 6 6 6 6 6 6 6 6 6 6 6 5 5 5 3 3 3 3 3 3 2 2 3 4 4 4 4 4 7 8 9 10 10 10 10 9 9
3 4 4 4 5 5 6 7 7 7 7 6 6 6 6 7 8 7 5 5 4 4 3 4 4 3 3 3 4 3 4 3 4 4 4 5 5 5 6 9 10 10 10
3 3 4 4 5 4 7 10 8 7 7 7 7 6 6 7 8 10 10 9 8 6 5 5 4 5 5 4 3 3 3 3 4 4 4 5 4 5 5 5 9 11 11
3 3 4 4 5 6 9 9 9 6 6 6 7 6 5 5 7 6 7 9 9 10 10 7 6 6 5 4 4 5 5 5 5 3 3 5 4 6 5 6 11 12 12
3 3 4 4 4 5 8 9 9 6 5 6 6 6 6 6 6 6 5 6 6 7 8 7 7 6 5 4 5 6 5 4 3 3 3 4 4 4 4 4 10 12 12
2 3 3 3 3 4 7 8 7 4 4 5 5 6 6 6 9 9 6 6 6 6 7 9 9 8 8 8 5 3 3 3 4 3 2 3 3 3 3 4 6 9 10
2 2 2 2 3 4 7 8 7 3 4 4 4 5 8 8 9 10 7 7 7 6 5 5 6 7 7 7 8 5 4 4 3 3 3 3 2 1 3 3 3 3 4
Wind_Direction
99 85 87 87 85 85 81 73 69 69 62 51 60 64 65 74 80 77 77 82 87 98 104 104 102 101 102 103 102 101 99 98 98 97 96 94 91 87 86 87 84 81 76
111 105 92 72 79 84 79 81 77 77 71 69 64 62 64 72 85 86 78 73 82 96 104 108 109 107 101 100 101 100 102 106 106 104 103 102 99 94 91 87 85 82 80
112 111 110 91 73 88 96 91 81 79 74 67 65 61 65 67 85 86 86 78 79 86 101 105 108 110 106 104 108 106 101 101 106 111 111 109 107 104 100 94 88 88 85
113 110 113 109 86 77 104 112 106 94 84 73 68 60 63 64 72 79 84 85 87 85 90 97 99 104 106 106 108 111 109 99 98 102 110 117 117 112 109 104 100 96 90
121 119 120 117 110 108 104 112 104 107 102 86 77 69 59 65 76 86 87 86 92 97 93 90 91 99 105 109 108 110 112 105 100 104 108 109 122 125 123 125 123 110 100
122 118 123 124 127 124 112 110 114 102 106 104 82 65 62 73 69 87 99 88 82 92 99 104 93 86 104 117 116 116 118 111 109 114 114 119 117 136 147 136 135 141 131
130 124 123 135 139 133 135 129 115 118 111 103 89 58 17 57 74 112 117 114 106 100 104 108 112 105 121 125 131 135 138 136 132 116 113 131 143 142 154 166 162 145 132
135 140 133 145 147 133 127 124 122 124 137 139 130 122 103 318 301 221 146 153 150 133 146 135 131 127 130 133 123 121 143 162 163 149 129 130 161 188 180 142 183 168 166
143 143 138 140 149 141 148 148 154 151 163 212 177 151 160 198 218 269 227 189 175 178 190 178 161 154 141 147 166 156 128 204 200 201 191 181 177 154 122 72 104 185 210
156 151 149 154 160 154 157 172 165 167 166 185 242 276 206 152 154 197 278 246 224 217 209 202 193 182 158 147 145 146 258 237 232 235 238 239 250 237 226 262 261 274 315
167 166 162 165 171 171 168 170 172 169 181 190 193 217 298 332 162 166 213 230 247 241 225 211 206 195 182 166 169 185 266 251 242 243 244 247 262 266 253 256 263 269 281
178 181 181 176 179 180 178 182 186 187 192 197 201 184 178 185 190 179 198 215 235 238 233 219 207 199 187 178 187 188 222 239 242 245 248 254 265 273 263 262 266 272 281
188 194 195 192 188 190 187 182 184 197 200 204 207 211 208 216 201 187 183 214 230 250 224 229 216 197 190 178 191 202 218 235 241 247 251 253 259 269 267 262 270 273 275
199 194 199 201 199 194 195 192 194 201 203 208 214 211 219 221 208 194 184 183 241 254 228 232 231 204 196 185 203 205 215 235 241 247 249 249 254 262 265 261 262 266 268
198 190 194 199 199 196 197 195 201 204 202 207 212 214 218 220 216 216 199 188 187 216 238 227 218 216 206 198 210 205 208 235 244 246 247 247 247 253 256 254 254 262 266
196 191 195 197 196 197 199 199 206 207 208 213 210 212 223 222 217 210 210 219 220 219 239 231 222 225 210 221 221 210 213 236 240 240 242 244 244 245 247 247 249 257 257
199 197 197 197 198 200 200 203 212 208 210 217 216 213 222 222 217 217 216 220 224 222 242 261 255 226 211 223 230 218 216 219 228 237 240 242 243 243 242 242 246 249 251
204 200 198 200 205 205 204 208 214 213 211 214 217 217 224 221 222 218 217 226 230 226 230 252 260 238 227 221 218 222 228 228 225 236 239 240 242 242 237 238 243 244 247
208 207 204 206 209 209 211 214 215 217 218 217 215 215 219 217 223 223 222 226 232 240 235 240 251 250 243 232 223 232 235 233 236 233 237 237 239 240 237 237 241 241 244
208 210 212 215 215 215 216 218 218 220 224 224 222 218 217 216 221 220 223 225 228 236 239 242 247 247 244 233 216 220 237 231 239 234 236 238 241 242 240 238 238 239 242
221 216 216 221 224 221 219 217 218 220 222 224 224 222 221 225 227 226 227 221 218 224 234 239 245 244 238 220 223 220 238 242 245 229 223 230 231 229 228 234 235 238 241
225 221 221 222 227 235 241 236 229 221 222 222 222 221 223 224 231 237 239 236 229 225 227 232 242 242 239 232 228 229 238 249 252 217 217 238 221 230 227 224 233 236 239
229 227 230 227 231 239 244 242 241 231 224 226 221 215 222 226 227 227 240 244 240 240 234 231 239 244 244 232 222 228 230 236 251 243 222 247 226 233 230 233 235 236 238
237 234 234 234 236 247 251 247 246 236 232 229 224 217 216 217 222 223 226 236 238 240 240 236 238 243 246 243 229 231 236 249 269 253 213 244 241 241 245 233 233 235 237
250 253 250 239 242 256 258 254 247 229 234 233 229 222 219 217 228 228 222 230 240 245 247 246 249 252 255 257 251 238 229 232 256 250 209 224 246 262 251 238 232 235 240
255 263 275 267 256 258 265 261 252 229 232 237 232 227 230 230 231 227 220 222 234 237 237 250 251 253 251 249 246 232 224 230 244 250 212 212 232 240 267 243 218 223 236